This demonstration page uses our WeatherBlox Daily Observations layout. Learn more.

Left ArrowRight Arrow

38.20091, -84.87328

Hourly Observations for June 1, 2021

Temp ( °F °C ) Dew Point ( °F °C ) Humidity (%) Winds ( mph kmh ) Pressure ( in mb ) Visibility ( mi km ) Precip ( " mm )
12:53 am 00:53 Clear 56 13.3 52 11.1 87 87 Calm 30.19 1023 10 16 0.00 0.00
1:53 am 01:53 Clear 59 15 53 11.7 81 81 Calm 30.18 1022 10 16 0.00 0.00
2:53 am 02:53 Clear 58 14.4 53 11.7 84 84 Calm 30.18 1022 10 16 0.00 0.00
3:53 am 03:53 Clear 57 13.9 52 11.1 83 83 Calm 30.18 1022 10 16 0.00 0.00
4:53 am 04:53 Clear 56 13.3 52 11.1 87 87 Calm 30.19 1022 10 16 0.00 0.00
5:53 am 05:53 Clear 54 12.2 51 10.6 90 90 Calm 30.19 1022 10 16 0.00 0.00
6:53 am 06:53 Mostly Sunny 56 13.3 52 11.1 87 87 Calm 30.20 1023 10 16 0.00 0.00
7:53 am 07:53 Mostly Sunny 60 15.6 55 12.8 84 84 Calm 30.22 1023 10 16 0.00 0.00
8:53 am 08:53 Sunny 65 18.3 56 13.3 73 73 Calm 30.22 1023 10 16 0.00 0.00
9:53 am 09:53 Mostly Cloudy 68 20 56 13.3 65 65 Calm 30.22 1023 10 16 0.00 0.00
10:53 am 10:53 Partly Cloudy 70 21.1 57 13.9 64 64 Calm 30.22 1024 10 16 0.00 0.00
11:53 am 11:53 Sunny 74 23.3 57 13.9 56 56 S 6 9 30.22 1023 10 16 0.00 0.00
12:53 pm 12:53 Sunny 75 23.9 56 13.3 52 52 S 5 7 30.20 1023 10 16 0.00 0.00
1:53 pm 13:53 Sunny 75 23.9 55 12.8 50 50 SE 6 9 30.19 1022 10 16 0.00 0.00
2:53 pm 14:53 Partly Cloudy 76 24.4 58 14.4 54 54 SE 8 13 30.17 1022 10 16 0.00 0.00
3:53 pm 15:53 Partly Cloudy 74 23.3 60 15.6 62 62 S 9 15 30.18 1022 10 16 0.00 0.00
4:53 pm 16:53 Mostly Cloudy 74 23.3 56 13.3 54 54 SSW 5 7 30.17 1022 10 16 0.00 0.00
5:53 pm 17:53 Cloudy 74 23.3 58 14.4 57 57 Calm 30.16 1021 10 16 0.00 0.00
6:53 pm 18:53 Cloudy 73 22.8 59 15 62 62 Calm 30.15 1021 10 16 0.00 0.00
7:53 pm 19:53 Cloudy 71 21.7 60 15.6 68 68 Calm 30.13 1020 10 16 0.00 0.00
8:53 pm 20:53 Cloudy 69 20.6 62 16.7 78 78 Calm 30.13 1020 10 16 0.00 0.00
9:53 pm 21:53 Cloudy 66 18.9 62 16.7 87 87 Calm 30.13 1020 10 16 0.00 0.00
10:53 pm 22:53 Cloudy 66 18.9 62 16.7 87 87 Calm 30.12 1020 10 16 0.00 0.00
11:53 pm 23:53 Cloudy 66 18.9 61 16.1 84 84 Calm 30.12 1020 10 16 0.00 0.00

Powered by AerisWeather